This demonstration page uses our WeatherBlox Daily Observations layout. Learn more.

Left ArrowRight Arrow

38.89511, -77.03637

Hourly Observations for September 19, 2021

Temp ( °F °C ) Dew Point ( °F °C ) Humidity (%) Winds ( mph kmh ) Pressure ( in mb ) Visibility ( mi km ) Precip ( " mm )
12:52 am 00:52 Mostly Clear 76 24.4 71 21.7 85 85 N N/A 30.09 1019 10 16 N/A
1:52 am 01:52 Mostly Clear 75 23.9 68 20 79 79 N N/A 30.09 1019 10 16 N/A
2:52 am 02:52 Mostly Clear 73 22.8 69 20.6 87 87 N 6 9 30.09 1019 10 16 N/A
3:52 am 03:52 Mostly Clear 73 22.8 67 19.4 81 81 N 7 11 30.09 1019 10 16 N/A
4:52 am 04:52 Mostly Clear 72 22.2 67 19.4 84 84 NNE 7 11 30.11 1020 10 16 N/A
5:52 am 05:52 Mostly Clear 72 22.2 66 18.9 82 82 NNE 8 13 30.13 1020 10 16 N/A
6:52 am 06:52 Mostly Clear 72 22.2 65 18.3 79 79 NNE 13 20 30.15 1021 10 16 N/A
7:52 am 07:52 Mostly Sunny 72 22.2 64 17.8 76 76 NNE 12 19 30.17 1022 10 16 N/A
8:52 am 08:52 Mostly Sunny 74 23.3 62 16.7 67 67 NE 10 17 30.18 1022 10 16 N/A
9:52 am 09:52 Mostly Sunny 75 23.9 61 16.1 62 62 NE 12 19 30.19 1023 10 16 N/A
10:52 am 10:52 Mostly Sunny 77 25 61 16.1 58 58 ENE 10 17 30.20 1023 10 16 N/A
11:52 am 11:52 Partly Cloudy 79 26.1 61 16.1 54 54 NE 10 17 30.20 1023 10 16 N/A
12:52 pm 12:52 Partly Cloudy 81 27.2 62 16.7 53 53 N 7 11 30.19 1022 10 16 N/A
1:52 pm 13:52 Partly Cloudy 82 27.8 62 16.7 51 51 NNW 8 13 30.18 1022 10 16 N/A
2:52 pm 14:52 Partly Cloudy 83 28.3 63 17.2 51 51 NNW 9 15 30.16 1021 10 16 N/A
3:52 pm 15:52 Partly Cloudy 81 27.2 64 17.8 57 57 NNE 12 19 30.15 1021 9 14 N/A
4:52 pm 16:52 Mostly Sunny 82 27.8 62 16.7 51 51 NNE 8 13 30.14 1021 10 16 N/A
5:52 pm 17:52 Mostly Sunny 81 27.2 60 15.6 49 49 N N/A 30.14 1021 10 16 N/A
6:52 pm 18:52 Mostly Sunny 80 26.7 58 14.4 47 47 N N/A 30.14 1021 10 16 N/A
7:52 pm 19:52 Mostly Clear 75 23.9 59 15 58 58 E 5 7 30.16 1021 10 16 N/A
8:52 pm 20:52 Mostly Clear 74 23.3 56 13.3 54 54 E 3 6 30.18 1022 10 16 N/A
9:52 pm 21:52 Mostly Clear 74 23.3 55 12.8 52 52 NE 3 6 30.20 1023 10 16 N/A
10:52 pm 22:52 Mostly Clear 72 22.2 58 14.4 61 61 NE 5 7 30.21 1023 10 16 N/A
11:52 pm 23:52 Mostly Clear 69 20.6 60 15.6 73 73 ENE 6 9 30.22 1023 10 16 N/A

Powered by AerisWeather